Location: Maiden
(35.5760°N, 81.2120°W)
Time: 17:36:16
(UTC-04:00)

Cosmos 1707 - Pass Details

Date: 14 June 2018
Orbit: 518 x 531 km, 82.5° (Epoch: 20 August)

Event Time Altitude Azimuth Distance (km) Brightness Sun altitude
Exits shadow 21:29:26 12° 133° (SE) 1,652 4.6 -8.9°
Maximum altitude 21:31:56 20° 89° (E) 1,248 4.2 -9.3°
Drops below altitude 10° 21:34:49 10° 41° (NE) 1,766 5.4 -9.8°
Sets 21:37:21 0° 24° (NNE) 2,657 6.5 -10.2°
